This is the latest recevied weather packets stored in our database for station/object JH0KSP-13. If no packets are shown the sender has not sent any weather packets the latest 10 day(s).
| Time | Temp. | Humidity | Pressure | Rain* | Wind** | Luminosity | Snow |
|---|---|---|---|---|---|---|---|
| 1777814817 | 13.89° C | 100% | 1006.2 hPa | 0 mm | - | - | - |
| 1777811216 | 13.89° C | 100% | 1007.5 hPa | 0 mm | - | - | - |
| 1777810017 | 12.78° C | 100% | 1007.6 hPa | 0 mm | - | - | - |
| 1777808816 | 12.78° C | 100% | 1008.2 hPa | 0 mm | - | - | - |
| 1777806415 | 12.78° C | 100% | 1008.3 hPa | 0 mm | - | - | - |
| 1777805217 | 12.78° C | 100% | 1008.3 hPa | 0 mm | - | - | - |
| 1777804016 | 12.78° C | 100% | 1008.3 hPa | 0 mm | - | - | - |
| 1777802816 | 12.78° C | 100% | 1008.7 hPa | 0 mm | - | - | - |
| 1777800416 | 13.89° C | 100% | 1008.6 hPa | 0 mm | - | - | - |
| 1777799408 | 13.89° C | 99% | 1008.7 hPa | 0 mm | - | - | - |
| 1777799217 | 13.89° C | 98% | 1008.7 hPa | 0 mm | - | - | - |
| 1777798808 | 13.89° C | 99% | 1008.6 hPa | 0 mm | - | - | - |
| 1777798016 | 15° C | 98% | 1008.6 hPa | 0 mm | - | - | - |
| 1777796817 | 16.11° C | 92% | 1008.8 hPa | 0 mm | - | - | - |
| 1777795809 | 17.22° C | 75% | 1008.8 hPa | 0 mm | - | - | - |
| 1777795615 | 17.22° C | 73% | 1008.7 hPa | 0 mm | - | - | - |
| 1777794608 | 17.22° C | 66% | 1008.9 hPa | 0 mm | - | - | - |
| 1777794416 | 17.78° C | 65% | 1008.9 hPa | 0 mm | - | - | - |
| 1777794010 | 17.78° C | 63% | 1009.1 hPa | 0 mm | - | - | - |
| 1777793408 | 17.78° C | 60% | 1008.9 hPa | 0 mm | - | - | - |
| 1777793217 | 17.78° C | 60% | 1008.8 hPa | 0 mm | - | - | - |
| 1777792016 | 17.78° C | 59% | 1008.8 hPa | 0 mm | - | - | - |
| 1777790816 | 18.89° C | 61% | 1008.7 hPa | 0 mm | - | - | - |
| 1777790408 | 18.89° C | 60% | 1008.7 hPa | 0 mm | - | - | - |
| 1777789808 | 18.89° C | 59% | 1008.9 hPa | 0 mm | - | - | - |
* Rain latest hour (hover to see other rain measurements)
** Current wind speed in m/s (hover to see current wind gust speed)